Blytheville Muni Airport, AR

8:45 PM CDT on July 24, 2017 (GMT -0500)
Blytheville Municipal

Weather History for KHKA - October, 2012

Change the Weather History Date:

Saturday, October 20, 2012

  Actual Average Record
Temperature  
Mean Temperature 56 °F -  
Max Temperature 70 °F 70 °F 90 °F (1953)
Min Temperature 43 °F 48 °F 26 °F (1952)
Degree Days  
Heating Degree Days 9    
Growing Degree Days 6 (Base 50)    
Moisture  
Dew Point 43 °F    
Average Humidity 65    
Maximum Humidity 93    
Minimum Humidity 39    
Precipitation  
Precipitation 0.01 in - - ()
Sea Level Pressure  
Sea Level Pressure 29.92 in    
Wind  
Wind Speed 6 mph (SSW)    
Max Wind Speed 10 mph    
Max Gust Speed -    
Visibility 10 miles    
Events      
Averages and records for this station are not official NWS values.
T = Trace of Precipitation, MM = Missing Value Source: NWS Daily Summary

Daily Weather History Graph

Daily Weather History Graph

Search for Another Location

Airport or City:

Trip Planner

Search our weather history database for the weather conditions in past years. The results will help you decide how hot, cold, wet, or windy it might be!

Date:

Astronomy

Oct. 20, 2012 Rise Set
Actual Time 7:10 AM CDT 6:16 PM CDT
Civil Twilight 6:44 AM CDT 6:42 PM CDT
Nautical Twilight 6:15 AM CDT 7:12 PM CDT
Astronomical Twilight 5:45 AM CDT 7:41 PM CDT
Moon 12:41 PM CDT (10/20) 11:07 PM CDT (10/20)
Length of Visible Light 11h 57m
Length of Day
11h 05m
Waxing Crescent, 34% of the Moon is Illuminated
Oct 20
Waxing Crescent
Oct 21
First Quarter
Oct 29
Full
Nov 6
Last Quarter
Nov 13
New

Hourly Weather History & Observations

Time (CDT) Temp. Windchill Dew Point Humidity Pressure Visibility Wind Dir Wind Speed Gust Speed Precip Events Conditions
12:53 AM 46.9 °F - 42.1 °F 83% 29.87 in 10.0 mi WSW 3.5 mph - 0.01 in   Clear
1:53 AM 48.0 °F - 42.1 °F 80% 29.89 in 10.0 mi SW 5.8 mph - N/A   Clear
2:53 AM 46.0 °F 44.8 °F 41.0 °F 83% 29.89 in 10.0 mi SW 3.5 mph - N/A   Clear
3:53 AM 46.0 °F 42.5 °F 41.0 °F 83% 29.89 in 10.0 mi SSW 6.9 mph - N/A   Clear
4:53 AM 44.1 °F 40.8 °F 41.0 °F 89% 29.89 in 10.0 mi SW 5.8 mph - N/A   Clear
5:53 AM 44.1 °F 40.1 °F 41.0 °F 89% 29.90 in 10.0 mi SSW 6.9 mph - N/A   Clear
6:53 AM 43.0 °F 39.5 °F 41.0 °F 93% 29.92 in 10.0 mi SSW 5.8 mph - N/A   Clear
7:53 AM 45.0 °F 42.6 °F 42.1 °F 90% 29.95 in 10.0 mi SW 4.6 mph - N/A   Clear
8:53 AM 53.1 °F - 43.0 °F 69% 29.97 in 10.0 mi WSW 5.8 mph - N/A   Clear
9:53 AM 57.0 °F - 44.1 °F 62% 29.97 in 10.0 mi SW 9.2 mph - N/A   Clear
10:53 AM 61.0 °F - 45.0 °F 56% 29.98 in 10.0 mi WSW 6.9 mph - N/A   Clear
11:53 AM 64.0 °F - 44.1 °F 48% 29.96 in 10.0 mi SW 8.1 mph - N/A   Clear
12:53 PM 66.0 °F - 43.0 °F 43% 29.95 in 10.0 mi West 6.9 mph - N/A   Clear
1:53 PM 66.0 °F - 44.1 °F 45% 29.93 in 10.0 mi SSW 6.9 mph - N/A   Clear
2:53 PM 68.0 °F - 44.1 °F 42% 29.91 in 10.0 mi SSW 8.1 mph - N/A   Clear
3:53 PM 69.1 °F - 43.0 °F 39% 29.90 in 10.0 mi SSW 10.4 mph - N/A   Clear
4:53 PM 69.1 °F - 43.0 °F 39% 29.90 in 10.0 mi Variable 5.8 mph - N/A   Clear
5:53 PM 66.0 °F - 45.0 °F 47% 29.90 in 10.0 mi South 3.5 mph - N/A   Clear
6:53 PM 63.0 °F - 43.0 °F 48% 29.90 in 10.0 mi South 5.8 mph - N/A   Clear
7:53 PM 60.1 °F - 45.0 °F 57% 29.91 in 10.0 mi SSE 4.6 mph - N/A   Clear
8:53 PM 59.0 °F - 45.0 °F 60% 29.91 in 10.0 mi South 5.8 mph - N/A   Clear
9:53 PM 57.9 °F - 46.0 °F 65% 29.91 in 10.0 mi SSE 5.8 mph - N/A   Clear
10:53 PM 55.9 °F - 46.9 °F 72% 29.93 in 10.0 mi SE 5.8 mph - N/A   Clear
11:53 PM 55.0 °F - 46.0 °F 72% 29.94 in 10.0 mi SSE 4.6 mph - N/A   Clear